Regional Weather Roundup
Issued by NWS

Home | Current Version | Previous Version | Text Only | Print | Product List | Glossary On
Versions: 1 2 3 4 5 6 7 8 9 10 11 12 13 14 15 16 17 18 19 20 21 22 23 24 25 26 27 28 29 30 31 32 33 34 35 36 37 38 39 40 41 42 43 44 45 46 47 48 49 50
171
ASUS43 KLSX 100057
RWRMO

WEATHER SUMMARY FOR MISSOURI
NATIONAL WEATHER SERVICE SPRINGFIELD MO
700 PM CST TUE FEB 09 2016

NOTE: "FAIR" INDICATES FEW OR NO CLOUDS BELOW 12,000 FEET WITH NO
       SIGNIFICANT WEATHER AND/OR OBSTRUCTIONS TO VISIBILITY.
       CURRENT SKY AND/OR WEATHER CONDITIONS ARE NOT AVAILABLE FOR
       CHILLICOTHE AND FARMINGTON.

MOZ001>031-035>038-043-044-053-054-100200-
...NORTHERN AND WESTERN MISSOURI...

CITY           SKY/WX    TMP DP  RH WIND       PRES   REMARKS
KANSAS CTY INT CLEAR     23   7  50 NW10      30.25R WCI  12
LEE`S SUMMIT   CLEAR     25   4  40 NW10      30.24R WCI  15
ST JOSEPH      CLEAR     23   7  50 NW13      30.28R WCI  11
CHILLICOTHE      N/A     23   7  50 NW9G20    30.21R WCI  13

$$
MOZ066>068-077>081-088>096-101>105-100200-
...SOUTHWEST MISSOURI...

CITY           SKY/WX    TMP DP  RH WIND       PRES   REMARKS
SPRINGFIELD    CLEAR     27   4  37 NW13      30.17R WCI  16
JOPLIN         CLEAR     29   7  39 NW16      30.25R WCI  17

$$
MOZ032>034-039>042-045>050-055>058-069>072-100200-
...CENTRAL MISSOURI...

CITY           SKY/WX    TMP DP  RH WIND       PRES   REMARKS
COLUMBIA       NOT AVBL
JEFFERSON CITY PTCLDY    24   9  52 NW15      30.18R WCI  11
ROLLA          PTCLDY    22   9  57 NW14G26   30.11R WCI   9
SEDALIA        CLEAR     23   7  50 NW12      30.20S WCI  12

$$
MOZ051-052-059>065-100200-
...EAST CENTRAL MISSOURI...

CITY           SKY/WX    TMP DP  RH WIND       PRES   REMARKS
ST LOUIS INTL  MOCLDY    26  10  50 NW16      30.10R WCI  14

$$
MOZ072>076-082>087-097>100-106>115-100200-
...SOUTH CENTRAL AND SOUTHEAST MISSOURI...

CITY           SKY/WX    TMP DP  RH WIND       PRES   REMARKS
CAPE GIRARDEAU MOCLDY    23  12  62 W8        30.11R WCI  14
POPLAR BLUFF   PTCLDY    27  11  51 N8        30.13R WCI  19
WEST PLAINS    CLEAR     28   6  39 NW14G24   30.12R WCI  17

$$



USA.gov is the U.S. government's official web portal to all federal, state and local government web resources and services.